Location: Góry Miechowskie
(50.3599°N, 20.1803°E)
Time: 07:19:42
(UTC+00:00)

A-11 Canister half - Pass Details

Date: 16 September 2024
Orbit: 1515 x 1684 km, 47.2° (Epoch: 05 October)

Event Time Altitude Azimuth Distance (km) Brightness Sun altitude
Rises 16:01:33 0° 207° (SSW) 4,749 12.0 6.9°
Reaches altitude 10° 16:05:04 10° 198° (SSW) 3,744 11.4 6.3°
Maximum altitude 16:13:01 32° 140° (SE) 2,395 9.8 5.1°
Drops below altitude 10° 16:20:50 10° 81° (E) 3,683 10.4 3.8°
Sets 16:24:14 0° 73° (ENE) 4,663 10.9 3.3°
